This is the latest recevied weather packets stored in our database for station/object DH0DM-13. If no packets are shown the sender has not sent any weather packets the latest 1 day(s).
| Time | Temp. | Humidity | Pressure | Rain* | Wind** | Luminosity | Snow |
|---|---|---|---|---|---|---|---|
| 1778003041 | 17.22° C | 78% | 980.2 hPa | 0.25 mm | 2.24 m/s, 27° | - | - |
| 1778002440 | 17.22° C | 77% | 980.4 hPa | 0.25 mm | 0.45 m/s, 338° | - | - |
| 1778001840 | 17.22° C | 77% | 980.2 hPa | 0.25 mm | 2.24 m/s, 312° | - | - |
| 1778001239 | 17.22° C | 77% | 980.4 hPa | 0.25 mm | 0.45 m/s, 9° | - | - |
| 1778000638 | 17.78° C | 76% | 980.5 hPa | 0.25 mm | 0.45 m/s, 46° | - | - |
| 1778000037 | 17.78° C | 75% | 980.3 hPa | 0.25 mm | 2.24 m/s, 319° | - | - |
| 1777999436 | 17.78° C | 74% | 980.5 hPa | 0.25 mm | 2.24 m/s, 320° | - | - |
| 1777998835 | 17.78° C | 73% | 980.5 hPa | 0.25 mm | 0.89 m/s, 356° | - | - |
| 1777998235 | 18.33° C | 72% | 980.5 hPa | 0.25 mm | 2.68 m/s, 8° | - | - |
| 1777997634 | 18.33° C | 72% | 980.7 hPa | 0.25 mm | 4.02 m/s, 293° | - | - |
| 1777997033 | 18.33° C | 71% | 980.7 hPa | 0.25 mm | 3.13 m/s, 321° | - | - |
| 1777996432 | 18.33° C | 71% | 980.8 hPa | 0.25 mm | 0.45 m/s, 77° | - | - |
| 1777995831 | 18.89° C | 68% | 980.8 hPa | 0.25 mm | 4.47 m/s, 30° | - | - |
| 1777995230 | 19.44° C | 66% | 980.9 hPa | 0.25 mm | 0.89 m/s, 57° | - | - |
| 1777994629 | 19.44° C | 66% | 981 hPa | 0.25 mm | 1.34 m/s, 319° | - | - |
| 1777994028 | 18.89° C | 66% | 981.2 hPa | 0.25 mm | 5.36 m/s, 342° | - | - |
| 1777993429 | 18.89° C | 64% | 981 hPa | 0.25 mm | 3.58 m/s, 341° | - | - |
| 1777992825 | 18.89° C | 64% | 980.9 hPa | 0.25 mm | 2.24 m/s, 338° | - | - |
| 1777992225 | 18.89° C | 63% | 981 hPa | 0.25 mm | 4.02 m/s, 269° | - | - |
| 1777991624 | 18.89° C | 63% | 981.2 hPa | 0.25 mm | 1.79 m/s, 312° | - | - |
| 1777991023 | 18.89° C | 61% | 981.2 hPa | 0.25 mm | 3.13 m/s, 44° | - | - |
| 1777990422 | 19.44° C | 60% | 981.1 hPa | 0.25 mm | 2.68 m/s, 23° | - | - |
| 1777989821 | 20° C | 59% | 981.3 hPa | 0.25 mm | 0 m/s | - | - |
| 1777989220 | 20.56° C | 58% | 981.4 hPa | 0.25 mm | 1.34 m/s, 351° | - | - |
| 1777988619 | 20.56° C | 60% | 981.5 hPa | 0.25 mm | 0.89 m/s, 304° | - | - |
* Rain since midnight (hover to see other rain measurements)
** Current wind speed in m/s (hover to see current wind gust speed)